Starlink 31582

operational
NORAD ID: 59545 Int'l Des: 2024-074 Owner: SPXS Country: US Constellation: starlink
LEOCIRCULAR

Über Starlink 31582

Beschreibung wird geladen...

Live-Position

3D-Globus wird geladen...

Nächste Überflüge

Höhenverlauf

Altitude vs Time

uPlot chart will show altitude changes over time

Zweizeiliger Elementsatz

1 59545U 24074M 25351.58379330 -.00002947 00000-0 -97606-4 0 9995
2 59545 43.0007 87.5313 0000741 278.9443 81.1325 15.27585890 93451
Epoch: 17. Dez. 2025 • Age: 7 hours

Aktueller Status

Höhe 495.7 km
Geschwindigkeit 7.62 km/s
Subsatellitenpunkt -42.63°S, 63.42°W
Startdatum 18. Apr. 2024
Alter 1.6 years
Typ internet

Technische Details

Klassifizierung Payload
Masse 730.00 kg
Trockenmasse 700.00 kg
Gesamtmasse 730.00 kg
Länge 0.30 m
Durchmesser 4.10 m
Spannweite 29.00 m
Form Box + pan
Hersteller SPXS
Bus-Typ Starlink V2M
Phasenstatus In Orbit
Besitzer/Staat SPXS/US

Große Konstellationen

Loading constellations...